Hourly Data Report for October 03, 2017

All times are specified in Local Standard Time (LST). Add 1 hour to adjust for Daylight Saving Time where and when it is observed.

GRISE FIORD CLIMATE
NUNAVUT

76°25'22.040" N
82°54'08.020" W
44.50 m
2402351
71971
NGC

Download Data

Hourly Data (October 2017)
Hourly Data Report for October 3, 2017
Temp Definition
°C
Dew Point Temp Definition
°C
Rel Hum Definition
%
Wind Dir Definition
10's deg

Wind Spd Definition
km/h
Visibility Definition
km
Stn Press Definition
kPa
Hmdx Definition


Wind Chill Definition


Weather Definition


TIME
00:00 -2.7 -8.7 63 8 19   99.76   -8 LegendNANA
01:00 -3.2 -8.3 68 9 14   99.75   -8 LegendNANA
02:00 -2.3 -9.5 58 9 21   99.73   -8 LegendNANA
03:00 -2.2 -9.2 59 9 20   99.71   -8 LegendNANA
04:00 -2.7 -8.9 63 30 5   99.71   -5 LegendNANA
05:00 -1.9 -7.8 64 1 20   99.67   -8 LegendNANA
06:00 -1.8 -7.3 66 6 21   99.68   -8 LegendNANA
07:00 -2.7 -7.5 70 6 22   99.70   -9 LegendNANA
08:00 -2.3 -6.9 70 6 22   99.64   -8 LegendNANA
09:00 -1.4 -8.1 61 8 12   99.62   -5 LegendNANA
10:00 -1.4 -8.3 59 8 14   99.60   -6 LegendNANA
11:00
12:00
13:00 -1.4 -7.3 64 6 35   99.51   -9 LegendNANA
14:00 -1.7 -7.5 65 5 38   99.53   -9 LegendNANA
15:00 -1.1 -8.3 58 4 37   99.49   -9 LegendNANA
16:00 -0.8 -8.3 57 3 44   99.49   -9 LegendNANA
17:00 -1.5 -7.0 66 4 34   99.48   -9 LegendNANA
18:00 -1.2 -7.3 63 3 36   99.45   -9 LegendNANA
19:00 -1.3 -8.1 60 5 45   99.45   -10 LegendNANA
20:00 -1.0 -8.5 57 4 46   99.44   -9 LegendNANA
21:00 -0.2 -8.2 55 4 53   99.45   -9 LegendNANA
22:00 0.0 -8.0 55 4 50   99.45   -8 LegendNANA
23:00 -1.2 -8.2 59 5 51   99.43   -10 LegendNANA

Notes on Data Quality.

Legend

  • E = Estimated
  • M = Missing
  • NA = Not Available
  • ‡ = Partner data that is not subject to review by the National Climate Archives
Date modified: